[[{"header":{"parameterUnit":"m.s-1","parameterCategory":1,"la1":30.2991,"la2":30.254,"lo1":-89.0895,"lo2":-89.0444,"dy":0.0017,"dx":0.0017,"nx":28,"ny":28,"refTime":"2025-07-05T09:00:00:Z","depth":0,"parameterNumber":2,"parameterNumberName":"U-component_of_WINDS"},"data":[0,0,0,0,0,0,0,0,0,0,0,0,0,0,0,0,0,0,0,0,0,0,0,0,0,0,0,0,0,0,0,0,0,0,0,0,0,0,0,0,0,0,0,0,0,0,0,0,0,0,0,0,0,0,0,0,0,0,-2.202,-2.202,0,-2.1968,-2.1967,-2.1967,-2.1898,-2.1897,-2.1896,-2.1894,-2.1845,-2.1844,-2.1844,0,0,0,0,0,0,0,0,0,0,0,0,0,-2.2063,-2.2063,-2.202,-2.202,-2.2019,-2.1968,-2.1967,-2.1967,-2.1898,-2.1897,-2.1895,-2.1894,-2.1845,-2.1844,-2.1844,0,0,0,0,0,0,0,0,0,0,0,0,0,-2.2031,-2.2063,-2.202,-2.1978,-2.1974,-2.1968,-2.1967,-2.1967,-2.1898,-2.1897,-2.1895,-2.1893,-2.1845,-2.1844,-2.1844,-2.1876,0,0,-2.1843,-2.1843,0,0,0,0,0,0,0,0,-2.2033,-2.203,-2.1985,-2.1981,-2.1976,-2.1938,-2.1964,-2.1936,-2.1899,-2.1927,-2.1894,-2.1892,-2.1877,-2.1874,-2.1868,-2.1874,-2.1872,-2.1843,-2.1843,-2.1842,-2.1842,0,0,0,0,0,0,0,-2.2035,-2.2032,-2.2,-2.1985,-2.1979,-2.1963,-2.1957,-2.1959,-2.1913,-2.1925,-2.1919,-2.1914,-2.1874,-2.1869,-2.1866,-2.1871,-2.1843,-2.1842,-2.1842,-2.1842,-2.19,-2.1902,0,0,0,0,0,0,-2.2043,-2.2034,-2.2001,-2.1998,-2.2001,-2.1964,-2.1957,-2.1952,-2.1912,-2.1905,-2.1916,-2.1911,-2.187,-2.1867,-2.1864,-2.1899,-2.1842,-2.1842,-2.1842,-2.1899,-2.1901,-2.1903,0,0,0,0,0,0,-2.2045,-2.2041,-2.2003,-2.2015,-2.2008,-2.1965,-2.196,-2.1952,-2.1946,-2.1905,-2.1897,-2.1918,-2.1869,-2.1865,-2.1873,-2.1897,-2.1842,-2.1842,-2.1896,-2.1899,-2.1902,-2.197,0,0,0,0,0,0,-2.2046,-2.2042,-2.2053,-2.2015,-2.2008,-2.2013,-2.1962,-2.1952,-2.1945,-2.1939,-2.1906,-2.1898,-2.1867,-2.1874,-2.1873,-2.1895,-2.1841,-2.1894,-2.1898,-2.1901,-2.1965,-2.1974,-2.1982,0,0,0,0,0,-2.2048,-2.2075,-2.2054,-2.2051,-2.2021,-2.2014,-2.201,-2.1972,-2.1947,-2.1958,-2.1932,-2.1899,-2.1894,-2.1876,-2.1874,-2.1896,-2.1893,-2.1897,-2.1901,-2.1961,-2.1973,-2.1982,0,0,0,0,0,0,-2.2118,-2.207,-2.2046,-2.2061,-2.2042,-2.2002,-2.2016,-2.1986,-2.1974,-2.1969,-2.1924,-2.1917,-2.1931,-2.1914,-2.1895,-2.1925,-2.1888,-2.1892,-2.1935,-2.1946,-2.1954,-2.1958,-2.1841,0,0,0,0,0,-2.2136,-2.2133,-2.2091,-2.2109,-2.21,-2.206,-2.2055,-2.2028,-2.2007,-2.1999,-2.1973,-2.1955,-2.1949,-2.1947,-2.1939,-2.1962,-2.1954,-2.1977,-2.1985,-2.1992,-2.1996,-2.2007,-2.2017,-2.1916,-2.1916,-2.1916,0,0,-2.2172,-2.2144,-2.2146,-2.2122,-2.2104,-2.2104,-2.2054,-2.2055,-2.2054,-2.1999,-2.2005,-2.1986,-2.1963,-2.1979,-2.1985,-2.1966,-2.2022,-2.1997,-2.2003,-2.2003,-2.2013,-2.2022,-2.2031,-2.1918,-2.1918,-2.1917,0,0,-2.2236,-2.2216,-2.2228,-2.2211,-2.2183,-2.2156,-2.2159,-2.2124,-2.2109,-2.2114,-2.2072,-2.2071,-2.2062,-2.2047,-2.2038,-2.2097,-2.2067,-2.2096,-2.2141,-2.2152,-2.216,-2.2167,-2.2188,-2.2196,-2.21,-2.21,-2.21,0,-2.2285,-2.2281,-2.2239,-2.2242,-2.2233,-2.2182,-2.2195,-2.218,-2.2153,-2.2148,-2.2127,-2.2114,-2.2095,-2.2106,-2.2121,-2.2115,-2.2118,-2.21,-2.2162,-2.2169,-2.2174,-2.2194,-2.2202,-2.2104,-2.2103,-2.2103,-2.2103,0,-2.2342,-2.234,-2.2353,-2.2327,-2.2319,-2.2328,-2.2287,-2.2285,-2.2258,-2.2233,-2.2239,-2.2214,-2.22,-2.2201,-2.2175,-2.2209,-2.2198,-2.217,-2.2133,-2.2188,-2.2206,-2.2213,-2.2109,-2.2108,-2.2107,-2.2106,0,0,-2.245,-2.2399,-2.2405,-2.2392,-2.2358,-2.2356,-2.2363,-2.2348,-2.2347,-2.233,-2.2334,-2.2327,-2.23,-2.2291,-2.2263,-2.2273,-2.2321,-2.2243,-2.2242,-2.2259,-2.2357,-2.2379,-2.2388,-2.23,-2.2301,-2.2302,-2.2359,0,-2.2509,-2.2516,-2.2478,-2.2495,-2.2493,-2.2444,-2.2449,-2.2429,-2.2406,-2.2402,-2.2377,-2.2373,-2.2338,-2.2332,-2.2339,-2.2314,-2.234,-2.2309,-2.2305,-2.2305,-2.2313,-2.2397,-2.242,-2.2475,-2.2366,-2.2367,-2.2368,0,-2.2579,-2.2564,-2.258,-2.2545,-2.2543,-2.2548,-2.2531,-2.2528,-2.2504,-2.2487,-2.2476,-2.2443,-2.2447,-2.2411,-2.2417,-2.2397,-2.2393,-2.238,-2.2381,-2.238,-2.234,-2.2399,-2.2492,-2.25,-2.2378,-2.2378,-2.2377,0,-2.2657,-2.2641,-2.2648,-2.2639,-2.2598,-2.2603,-2.2586,-2.2561,-2.2555,-2.254,-2.2536,-2.2523,-2.2516,-2.2507,-2.2472,-2.2449,-2.2483,-2.2443,-2.2469,-2.247,-2.2479,-2.2479,-2.2573,-2.2476,-2.2476,-2.2476,-2.2475,0,-2.2727,-2.2739,-2.2683,-2.2688,-2.27,-2.2656,-2.267,-2.2649,-2.2627,-2.2627,-2.2584,-2.2586,-2.254,-2.2536,-2.2509,-2.2518,-2.2516,-2.2502,-2.2495,-2.2506,-2.2508,-2.2504,-2.2499,-2.2478,-2.2477,-2.2477,-2.2476,0,-2.2816,-2.2779,-2.2784,-2.2744,-2.2734,-2.2746,-2.2712,-2.2715,-2.2689,-2.269,-2.2688,-2.2648,-2.2642,-2.2606,-2.2592,-2.2573,-2.2593,-2.2578,-2.26,-2.2596,-2.2623,-2.2621,-2.2718,-2.2729,-2.2625,-2.2626,-2.2627,0,-2.2863,-2.2871,-2.2832,-2.2829,-2.2813,-2.2809,-2.2801,-2.2759,-2.2753,-2.2727,-2.2734,-2.2724,-2.2714,-2.2706,-2.2677,-2.2666,-2.265,-2.2685,-2.2649,-2.266,-2.2651,-2.2652,-2.2652,-2.2693,-2.2695,-2.2696,-2.2697,0,-2.2951,-2.2932,-2.2923,-2.2907,-2.2899,-2.2885,-2.2868,-2.2868,-2.2821,-2.2817,-2.2809,-2.2802,-2.2786,-2.2778,-2.2761,-2.2745,-2.2714,-2.2708,-2.2713,-2.2725,-2.2738,-2.2732,-2.2622,-2.2706,-2.2705,-2.2705,-2.2704,-2.2704,-2.3021,-2.3026,-2.2999,-2.299,-2.2972,-2.2958,-2.2958,-2.2932,-2.2925,-2.2908,-2.2883,-2.288,-2.2856,-2.2831,-2.2817,-2.2814,-2.2796,-2.2804,-2.2806,-2.2808,-2.2814,-2.2738,-2.2811,-2.2811,-2.281,-2.281,-2.281,0,-2.3107,-2.3087,-2.3079,-2.3056,-2.3049,-2.3018,-2.2998,-2.2995,-2.2991,-2.2971,-2.2962,-2.2953,-2.2944,-2.2913,-2.2901,-2.2905,-2.289,-2.2903,-2.2903,-2.29,-2.2831,-2.2828,-2.2915,-2.2915,-2.2915,-2.2915,-2.2915,-2.2915,-2.3151,-2.3158,-2.3135,-2.3133,-2.3113,-2.3107,-2.3098,-2.3085,-2.3069,-2.3061,-2.3052,-2.3032,-2.3008,-2.2993,-2.2984,-2.2975,-2.2973,-2.2991,-2.2978,-2.2915,-2.2905,-2.2895,-2.2891,-2.2991,-2.2991,-2.3046,-2.3047,-2.3047]},{"header":{"parameterUnit":"m.s-1","parameterCategory":1,"la1":30.2991,"la2":30.254,"lo1":-89.0895,"lo2":-89.0444,"dy":0.0017,"dx":0.0017,"nx":28,"ny":28,"refTime":"2025-07-05T09:00:00:Z","depth":0,"parameterNumber":3,"parameterNumberName":"V-component_of_WINDS"},"data":[0,0,0,0,0,0,0,0,0,0,0,0,0,0,0,0,0,0,0,0,0,0,0,0,0,0,0,0,0,0,0,0,0,0,0,0,0,0,0,0,0,0,0,0,0,0,0,0,0,0,0,0,0,0,0,0,0,0,-0.6479,-0.6477,0,-0.6273,-0.627,-0.6268,-0.617,-0.617,-0.617,-0.6171,-0.5948,-0.5942,-0.5936,0,0,0,0,0,0,0,0,0,0,0,0,0,-0.6779,-0.6774,-0.6479,-0.6477,-0.6474,-0.6273,-0.627,-0.6268,-0.617,-0.617,-0.6171,-0.6171,-0.595,-0.5943,-0.5936,0,0,0,0,0,0,0,0,0,0,0,0,0,-0.6618,-0.6772,-0.648,-0.6402,-0.6393,-0.6274,-0.627,-0.6267,-0.617,-0.617,-0.6171,-0.6171,-0.5952,-0.5944,-0.5935,-0.5875,0,0,-0.5907,-0.5903,0,0,0,0,0,0,0,0,-0.6627,-0.6607,-0.6416,-0.6407,-0.6396,-0.6248,-0.6294,-0.6135,-0.617,-0.6254,-0.6171,-0.6171,-0.6047,-0.603,-0.599,-0.5864,-0.5855,-0.5906,-0.5901,-0.5897,-0.5894,0,0,0,0,0,0,0,-0.6639,-0.6615,-0.6397,-0.6413,-0.6401,-0.6374,-0.6351,-0.6264,-0.6151,-0.6247,-0.6239,-0.6217,-0.6041,-0.6,-0.5985,-0.5851,-0.5906,-0.5898,-0.5893,-0.5889,-0.5665,-0.5665,0,0,0,0,0,0,-0.6664,-0.6625,-0.6404,-0.6391,-0.6515,-0.6368,-0.6343,-0.6295,-0.6152,-0.6131,-0.6217,-0.6213,-0.6015,-0.5995,-0.5976,-0.5897,-0.5897,-0.5888,-0.5883,-0.5666,-0.5665,-0.5665,0,0,0,0,0,0,-0.6671,-0.6645,-0.6412,-0.6506,-0.6474,-0.6363,-0.631,-0.6291,-0.6249,-0.613,-0.6108,-0.6195,-0.6014,-0.5989,-0.5901,-0.5888,-0.5884,-0.5876,-0.5666,-0.5666,-0.5665,-0.5738,0,0,0,0,0,0,-0.668,-0.6648,-0.6626,-0.6507,-0.647,-0.6344,-0.6309,-0.6287,-0.6235,-0.6228,-0.6104,-0.6083,-0.6013,-0.5916,-0.5893,-0.5875,-0.5869,-0.5667,-0.5666,-0.5665,-0.5736,-0.574,-0.5743,0,0,0,0,0,-0.6691,-0.6652,-0.6626,-0.66,-0.6441,-0.6343,-0.6322,-0.6245,-0.6234,-0.621,-0.6134,-0.6087,-0.5894,-0.5908,-0.5881,-0.586,-0.5668,-0.5666,-0.5665,-0.5735,-0.5739,-0.5743,0,0,0,0,0,0,-0.6769,-0.6635,-0.6604,-0.6527,-0.6448,-0.6327,-0.6294,-0.6251,-0.6171,-0.6167,-0.6071,-0.6044,-0.5965,-0.5903,-0.5921,-0.5795,-0.5776,-0.5769,-0.5838,-0.5841,-0.5845,-0.586,-0.5861,0,0,0,0,0,-0.6778,-0.6714,-0.6598,-0.6541,-0.6503,-0.6406,-0.6361,-0.6309,-0.6221,-0.6186,-0.6103,-0.6017,-0.5937,-0.5885,-0.5805,-0.5727,-0.5698,-0.57,-0.5704,-0.5707,-0.5702,-0.5656,-0.5656,-0.5661,-0.5661,-0.5661,0,0,-0.6794,-0.6713,-0.6677,-0.6555,-0.6487,-0.642,-0.6378,-0.6308,-0.6256,-0.6174,-0.6087,-0.6024,-0.5921,-0.5839,-0.5798,-0.5785,-0.5694,-0.5705,-0.5709,-0.5702,-0.5655,-0.5655,-0.5654,-0.566,-0.566,-0.566,0,0,-0.6789,-0.6722,-0.6668,-0.6602,-0.6503,-0.6439,-0.6426,-0.6312,-0.6268,-0.6181,-0.6118,-0.6053,-0.5917,-0.5847,-0.5793,-0.5765,-0.5719,-0.5741,-0.5758,-0.5715,-0.5714,-0.5713,-0.5703,-0.57,-0.5737,-0.5737,-0.5737,0,-0.6821,-0.672,-0.6644,-0.6579,-0.6526,-0.6453,-0.6396,-0.6334,-0.6212,-0.6176,-0.6164,-0.5993,-0.5919,-0.5819,-0.5813,-0.5772,-0.5753,-0.5754,-0.5721,-0.572,-0.5718,-0.5706,-0.5703,-0.5741,-0.574,-0.574,-0.5739,0,-0.6764,-0.6696,-0.6663,-0.6552,-0.6495,-0.6434,-0.6346,-0.6297,-0.625,-0.6187,-0.6098,-0.6007,-0.5908,-0.588,-0.5831,-0.5773,-0.5769,-0.5741,-0.5719,-0.5722,-0.571,-0.5705,-0.5745,-0.5744,-0.5743,-0.5742,0,0,-0.6801,-0.6651,-0.664,-0.659,-0.6476,-0.6419,-0.6354,-0.6261,-0.6221,-0.6139,-0.6081,-0.5969,-0.5943,-0.5882,-0.5825,-0.5788,-0.5771,-0.5763,-0.5759,-0.5768,-0.5701,-0.5723,-0.5719,-0.5741,-0.5739,-0.5739,-0.5709,0,-0.678,-0.6665,-0.6595,-0.6507,-0.6442,-0.6373,-0.6315,-0.6238,-0.6177,-0.611,-0.6041,-0.5963,-0.5935,-0.5898,-0.5858,-0.5782,-0.5756,-0.5783,-0.5682,-0.568,-0.571,-0.5713,-0.5735,-0.5712,-0.5704,-0.5703,-0.5702,0,-0.674,-0.6666,-0.6573,-0.6468,-0.6438,-0.6388,-0.6298,-0.6236,-0.6146,-0.6104,-0.6038,-0.5982,-0.5908,-0.5894,-0.5789,-0.5809,-0.5764,-0.572,-0.5717,-0.5704,-0.5691,-0.5699,-0.5702,-0.5699,-0.5694,-0.5695,-0.5696,0,-0.6777,-0.6652,-0.6581,-0.6539,-0.6415,-0.6382,-0.6328,-0.6238,-0.6187,-0.6107,-0.6072,-0.5983,-0.5934,-0.5864,-0.5784,-0.5782,-0.5687,-0.5667,-0.5648,-0.565,-0.563,-0.5633,-0.5626,-0.5603,-0.5603,-0.5603,-0.5603,0,-0.6761,-0.6706,-0.6596,-0.6552,-0.6488,-0.6408,-0.6345,-0.6285,-0.6206,-0.6147,-0.608,-0.6025,-0.5923,-0.5855,-0.5791,-0.5714,-0.5692,-0.5654,-0.5637,-0.566,-0.5664,-0.5628,-0.5627,-0.5602,-0.5602,-0.5602,-0.5602,0,-0.679,-0.6715,-0.6632,-0.6523,-0.6494,-0.6452,-0.6356,-0.6309,-0.6247,-0.6172,-0.615,-0.6049,-0.5965,-0.588,-0.5764,-0.5722,-0.5646,-0.5624,-0.5678,-0.5669,-0.5655,-0.5657,-0.5624,-0.5615,-0.5599,-0.56,-0.56,0,-0.6785,-0.6742,-0.663,-0.6588,-0.6537,-0.6469,-0.6418,-0.6337,-0.6285,-0.6181,-0.6146,-0.6058,-0.5984,-0.5852,-0.5766,-0.5678,-0.5653,-0.5647,-0.5638,-0.5663,-0.5652,-0.5655,-0.565,-0.565,-0.5651,-0.5651,-0.5652,0,-0.6784,-0.6749,-0.6681,-0.6599,-0.6542,-0.6472,-0.64,-0.6368,-0.6271,-0.6217,-0.6133,-0.6076,-0.5961,-0.5874,-0.5776,-0.5716,-0.5667,-0.5656,-0.5646,-0.5668,-0.5701,-0.5683,-0.5686,-0.5656,-0.5656,-0.5655,-0.5655,-0.5655,-0.6794,-0.6754,-0.667,-0.6596,-0.6534,-0.6469,-0.642,-0.6353,-0.6283,-0.6187,-0.6141,-0.6057,-0.5967,-0.5831,-0.5773,-0.5703,-0.5689,-0.5676,-0.5672,-0.567,-0.5676,-0.5714,-0.5685,-0.5684,-0.5684,-0.5684,-0.5684,0,-0.679,-0.6733,-0.6666,-0.657,-0.6511,-0.6476,-0.6394,-0.6346,-0.6275,-0.6197,-0.6127,-0.603,-0.5946,-0.5855,-0.5764,-0.5726,-0.5701,-0.5705,-0.5706,-0.5693,-0.5693,-0.571,-0.5726,-0.5726,-0.5726,-0.5726,-0.5726,-0.5726,-0.678,-0.671,-0.6666,-0.6564,-0.6506,-0.6427,-0.6384,-0.6322,-0.626,-0.6157,-0.6089,-0.6032,-0.5948,-0.5851,-0.5771,-0.5746,-0.5715,-0.5726,-0.5694,-0.5696,-0.5693,-0.569,-0.5705,-0.572,-0.572,-0.5699,-0.5699,-0.5699]}]]